Location: Sungai Dangang
(2.7500°N, 113.8333°E)
Time: 00:41:30
(UTC+00:00)

Ariane H10+ - Pass Details

Date: 25 September 2021
Orbit: 237 x 7755 km, 6.8° (Epoch: 21 October)

Event Time Altitude Azimuth Distance (km) Brightness Sun altitude
Rises 11:45:55 0° 264° (W) 2,760 6.4 -22.4°
Reaches altitude 10° 11:49:04 10° 248° (WSW) 1,318 4.2 -23.2°
Enters shadow 11:50:04 16° 231° (SW) 918 3.1 -23.5°
